Time,TemperatureF,DewpointF,PressureIn,WindDirection,WindDirectionDegrees,WindSpeedMPH,WindSpeedGustMPH,Humidity,HourlyPrecipIn,Conditions,Clouds,dailyrainin,SoftwareType,DateUTC
2013-02-03 00:12:00,56.4,27.0,30.15,SE,146,3.0,3.0,32,0.00,,,0.00,weatherlink.com 1.10,2013-02-03 07:12:00,
2013-02-03 00:27:00,55.9,32.0,30.14,ESE,111,2.0,3.0,41,0.00,,,0.00,weatherlink.com 1.10,2013-02-03 07:27:00,
2013-02-03 00:42:00,55.7,33.0,30.14,SE,142,2.0,4.0,43,0.00,,,0.00,weatherlink.com 1.10,2013-02-03 07:42:00,
2013-02-03 00:58:00,55.9,33.0,30.13,SSE,147,1.0,5.0,43,0.00,,,0.00,weatherlink.com 1.10,2013-02-03 07:58:00,
2013-02-03 01:13:00,55.8,33.0,30.13,ESE,113,0.0,1.0,43,0.00,,,0.00,weatherlink.com 1.10,2013-02-03 08:13:00,
2013-02-03 01:28:00,55.2,33.0,30.12,East,97,0.0,2.0,44,0.00,,,0.00,weatherlink.com 1.10,2013-02-03 08:28:00,
2013-02-03 01:43:00,54.9,33.0,30.12,East,97,1.0,1.0,44,0.00,,,0.00,weatherlink.com 1.10,2013-02-03 08:43:00,
2013-02-03 01:58:00,56.0,27.0,30.11,ESE,113,0.0,4.0,33,0.00,,,0.00,weatherlink.com 1.10,2013-02-03 08:58:00,
2013-02-03 02:13:00,55.8,28.0,30.11,SE,139,0.0,2.0,34,0.00,,,0.00,weatherlink.com 1.10,2013-02-03 09:13:00,
2013-02-03 02:28:00,55.2,27.0,30.10,SSE,148,2.0,4.0,34,0.00,,,0.00,weatherlink.com 1.10,2013-02-03 09:28:00,
2013-02-03 02:43:00,56.1,26.0,30.10,SE,141,2.0,4.0,32,0.00,,,0.00,weatherlink.com 1.10,2013-02-03 09:43:00,
2013-02-03 02:58:00,56.0,26.0,30.10,SSE,150,1.0,4.0,32,0.00,,,0.00,weatherlink.com 1.10,2013-02-03 09:58:00,
2013-02-03 03:13:00,55.5,27.0,30.09,East,97,5.0,5.0,33,0.00,,,0.00,weatherlink.com 1.10,2013-02-03 10:13:00,
2013-02-03 03:28:00,54.7,27.0,30.09,SSW,205,0.0,4.0,35,0.00,,,0.00,weatherlink.com 1.10,2013-02-03 10:28:00,
2013-02-03 03:43:00,53.8,28.0,30.09,SW,224,0.0,1.0,37,0.00,,,0.00,weatherlink.com 1.10,2013-02-03 10:43:00,
2013-02-03 03:58:00,53.1,28.0,30.08,SW,225,0.0,0.0,38,0.00,,,0.00,weatherlink.com 1.10,2013-02-03 10:58:00,
2013-02-03 04:13:00,52.8,29.0,30.07,East,97,0.0,3.0,40,0.00,,,0.00,weatherlink.com 1.10,2013-02-03 11:13:00,
2013-02-03 04:28:00,52.6,30.0,30.07,ESE,104,0.0,1.0,43,0.00,,,0.00,weatherlink.com 1.10,2013-02-03 11:28:00,
2013-02-03 04:43:00,52.8,30.0,30.07,ESE,115,1.0,2.0,42,0.00,,,0.00,weatherlink.com 1.10,2013-02-03 11:43:00,
2013-02-03 04:58:00,53.0,28.0,30.06,East,95,0.0,1.0,39,0.00,,,0.00,weatherlink.com 1.10,2013-02-03 11:58:00,
2013-02-03 05:13:00,55.1,26.0,30.06,ENE,75,3.0,4.0,33,0.00,,,0.00,weatherlink.com 1.10,2013-02-03 12:13:00,
2013-02-03 05:28:00,57.4,25.0,30.05,ENE,70,5.0,7.0,29,0.00,,,0.00,weatherlink.com 1.10,2013-02-03 12:28:00,
2013-02-03 05:43:00,56.4,26.0,30.06,ESE,121,2.0,5.0,31,0.00,,,0.00,weatherlink.com 1.10,2013-02-03 12:43:00,
2013-02-03 05:58:00,54.3,31.0,30.06,South,169,0.0,4.0,41,0.00,,,0.00,weatherlink.com 1.10,2013-02-03 12:58:00,
2013-02-03 06:13:00,53.6,31.0,30.06,SSW,196,1.0,5.0,43,0.00,,,0.00,weatherlink.com 1.10,2013-02-03 13:13:00,
2013-02-03 06:28:00,53.9,31.0,30.05,SSE,157,1.0,6.0,42,0.00,,,0.00,weatherlink.com 1.10,2013-02-03 13:28:00,
2013-02-03 06:43:00,53.5,31.0,30.06,SE,129,1.0,2.0,43,0.00,,,0.00,weatherlink.com 1.10,2013-02-03 13:43:00,
2013-02-03 06:58:00,53.0,31.0,30.05,ESE,112,1.0,2.0,44,0.00,,,0.00,weatherlink.com 1.10,2013-02-03 13:58:00,
2013-02-03 07:13:00,52.4,31.0,30.05,SE,145,1.0,2.0,45,0.00,,,0.00,weatherlink.com 1.10,2013-02-03 14:13:00,
2013-02-03 07:28:00,53.4,30.0,30.05,South,181,1.0,4.0,41,0.00,,,0.00,weatherlink.com 1.10,2013-02-03 14:28:00,
2013-02-03 07:43:00,54.1,31.0,30.06,SW,214,0.0,2.0,41,0.00,,,0.00,weatherlink.com 1.10,2013-02-03 14:43:00,
2013-02-03 07:58:00,54.5,31.0,30.06,SE,145,0.0,1.0,41,0.00,,,0.00,weatherlink.com 1.10,2013-02-03 14:58:00,
2013-02-03 08:13:00,56.5,27.0,30.06,ESE,110,3.0,3.0,32,0.00,,,0.00,weatherlink.com 1.10,2013-02-03 15:13:00,
2013-02-03 08:28:00,58.2,26.0,30.06,SSE,162,2.0,5.0,29,0.00,,,0.00,weatherlink.com 1.10,2013-02-03 15:28:00,
2013-02-03 08:43:00,58.8,25.0,30.06,SE,146,3.0,8.0,27,0.00,,,0.00,weatherlink.com 1.10,2013-02-03 15:43:00,
2013-02-03 08:58:00,58.8,26.0,30.06,SSE,165,3.0,8.0,28,0.00,,,0.00,weatherlink.com 1.10,2013-02-03 15:58:00,
2013-02-03 09:13:00,59.3,25.0,30.07,SE,142,3.0,6.0,27,0.00,,,0.00,weatherlink.com 1.10,2013-02-03 16:13:00,
2013-02-03 09:28:00,60.3,25.0,30.07,South,174,2.0,6.0,26,0.00,,,0.00,weatherlink.com 1.10,2013-02-03 16:28:00,
2013-02-03 09:43:00,61.4,25.0,30.07,ESE,118,1.0,3.0,25,0.00,,,0.00,weatherlink.com 1.10,2013-02-03 16:43:00,
2013-02-03 09:59:00,63.0,24.0,30.07,ESE,111,3.0,7.0,23,0.00,,,0.00,weatherlink.com 1.10,2013-02-03 16:59:00,
2013-02-03 10:14:00,64.1,25.0,30.07,SE,141,4.0,7.0,23,0.00,,,0.00,weatherlink.com 1.10,2013-02-03 17:14:00,
2013-02-03 10:29:00,64.9,27.0,30.07,SSE,162,4.0,7.0,24,0.00,,,0.00,weatherlink.com 1.10,2013-02-03 17:29:00,
2013-02-03 10:44:00,64.9,28.0,30.07,SSE,167,2.0,6.0,25,0.00,,,0.00,weatherlink.com 1.10,2013-02-03 17:44:00,
2013-02-03 10:59:00,65.2,28.0,30.07,SSE,155,0.0,3.0,25,0.00,,,0.00,weatherlink.com 1.10,2013-02-03 17:59:00,
2013-02-03 11:14:00,65.0,31.0,30.08,West,276,2.0,5.0,28,0.00,,,0.00,weatherlink.com 1.10,2013-02-03 18:14:00,
2013-02-03 11:29:00,65.0,34.0,30.07,WNW,285,2.0,7.0,31,0.00,,,0.00,weatherlink.com 1.10,2013-02-03 18:29:00,
2013-02-03 11:44:00,64.3,32.0,30.07,NNW,330,5.0,8.0,30,0.00,,,0.00,weatherlink.com 1.10,2013-02-03 18:44:00,
2013-02-03 11:59:00,63.9,33.0,30.06,West,276,1.0,8.0,31,0.00,,,0.00,weatherlink.com 1.10,2013-02-03 18:59:00,
2013-02-03 12:14:00,64.5,34.0,30.06,SSW,207,2.0,4.0,32,0.00,,,0.00,weatherlink.com 1.10,2013-02-03 19:14:00,
2013-02-03 12:29:00,64.2,32.0,30.05,NW,309,1.0,4.0,30,0.00,,,0.00,weatherlink.com 1.10,2013-02-03 19:29:00,
2013-02-03 12:44:00,63.8,32.0,30.04,WNW,290,2.0,6.0,30,0.00,,,0.00,weatherlink.com 1.10,2013-02-03 19:44:00,
2013-02-03 12:59:00,63.4,32.0,30.03,WNW,290,1.0,4.0,31,0.00,,,0.00,weatherlink.com 1.10,2013-02-03 19:59:00,
2013-02-03 13:14:00,63.4,31.0,30.03,West,274,3.0,4.0,30,0.00,,,0.00,weatherlink.com 1.10,2013-02-03 20:14:00,
2013-02-03 13:29:00,63.5,32.0,30.02,WNW,291,1.0,4.0,31,0.00,,,0.00,weatherlink.com 1.10,2013-02-03 20:29:00,
2013-02-03 13:44:00,64.0,32.0,30.01,West,271,0.0,5.0,30,0.00,,,0.00,weatherlink.com 1.10,2013-02-03 20:44:00,
2013-02-03 13:59:00,64.6,32.0,30.00,SSW,205,2.0,6.0,30,0.00,,,0.00,weatherlink.com 1.10,2013-02-03 20:59:00,
2013-02-03 14:14:00,64.8,31.0,30.00,South,169,2.0,6.0,28,0.00,,,0.00,weatherlink.com 1.10,2013-02-03 21:14:00,
2013-02-03 14:29:00,65.1,32.0,29.98,ESE,115,3.0,5.0,29,0.00,,,0.00,weatherlink.com 1.10,2013-02-03 21:29:00,
2013-02-03 14:45:00,66.6,33.0,29.98,SE,136,2.0,5.0,29,0.00,,,0.00,weatherlink.com 1.10,2013-02-03 21:45:00,
2013-02-03 14:59:00,69.2,36.0,29.97,SSE,159,2.0,6.0,30,0.00,,,0.00,weatherlink.com 1.10,2013-02-03 21:59:00,
2013-02-03 15:14:00,70.0,36.0,29.97,SE,146,3.0,6.0,29,0.00,,,0.00,weatherlink.com 1.10,2013-02-03 22:14:00,
2013-02-03 15:29:00,69.6,36.0,29.96,ESE,108,1.0,6.0,29,0.00,,,0.00,weatherlink.com 1.10,2013-02-03 22:29:00,
2013-02-03 15:44:00,70.4,36.0,29.97,SSW,205,0.0,6.0,28,0.00,,,0.00,weatherlink.com 1.10,2013-02-03 22:44:00,
2013-02-03 15:59:00,70.9,35.0,29.97,SW,232,1.0,3.0,27,0.00,,,0.00,weatherlink.com 1.10,2013-02-03 22:59:00,
2013-02-03 16:14:00,72.1,36.0,29.97,SSW,207,2.0,5.0,27,0.00,,,0.00,weatherlink.com 1.10,2013-02-03 23:14:00,
2013-02-03 16:30:00,72.8,36.0,29.96,NW,308,2.0,5.0,26,0.00,,,0.00,weatherlink.com 1.10,2013-02-03 23:30:00,
2013-02-03 16:45:00,71.9,36.0,29.97,WSW,252,1.0,3.0,27,0.00,,,0.00,weatherlink.com 1.10,2013-02-03 23:45:00,
2013-02-03 17:00:00,70.1,34.0,29.97,NW,316,2.0,5.0,27,0.00,,,0.00,weatherlink.com 1.10,2013-02-04 00:00:00,
2013-02-03 17:15:00,68.9,34.0,29.97,NNW,331,4.0,5.0,28,0.00,,,0.00,weatherlink.com 1.10,2013-02-04 00:15:00,
2013-02-03 17:30:00,67.8,33.0,29.97,NNW,333,2.0,6.0,28,0.00,,,0.00,weatherlink.com 1.10,2013-02-04 00:30:00,
2013-02-03 17:45:00,66.6,34.0,29.97,NNW,348,1.0,3.0,30,0.00,,,0.00,weatherlink.com 1.10,2013-02-04 00:45:00,
2013-02-03 18:00:00,65.8,34.0,29.98,NW,322,1.0,3.0,31,0.00,,,0.00,weatherlink.com 1.10,2013-02-04 01:00:00,
2013-02-03 18:15:00,65.2,34.0,29.98,NNW,342,1.0,2.0,32,0.00,,,0.00,weatherlink.com 1.10,2013-02-04 01:15:00,
2013-02-03 18:30:00,64.7,34.0,29.98,NNW,338,0.0,2.0,32,0.00,,,0.00,weatherlink.com 1.10,2013-02-04 01:30:00,
2013-02-03 18:45:00,63.1,38.0,29.98,NW,316,1.0,6.0,39,0.00,,,0.00,weatherlink.com 1.10,2013-02-04 01:45:00,
2013-02-03 19:00:00,61.6,38.0,29.98,NNW,330,2.0,5.0,42,0.00,,,0.00,weatherlink.com 1.10,2013-02-04 02:00:00,
2013-02-03 19:15:00,60.9,39.0,29.99,NW,317,3.0,6.0,44,0.00,,,0.00,weatherlink.com 1.10,2013-02-04 02:15:00,
2013-02-03 19:30:00,60.6,38.0,30.00,NW,314,5.0,7.0,43,0.00,,,0.00,weatherlink.com 1.10,2013-02-04 02:30:00,
2013-02-03 19:45:00,59.8,37.0,30.00,NW,304,5.0,9.0,43,0.00,,,0.00,weatherlink.com 1.10,2013-02-04 02:45:00,
2013-02-03 20:00:00,59.6,37.0,30.01,NNW,345,2.0,7.0,43,0.00,,,0.00,weatherlink.com 1.10,2013-02-04 03:00:00,
2013-02-03 20:15:00,59.5,37.0,30.01,NNW,333,2.0,8.0,43,0.00,,,0.00,weatherlink.com 1.10,2013-02-04 03:15:00,
2013-02-03 20:30:00,59.1,37.0,30.01,NNW,332,2.0,7.0,44,0.00,,,0.00,weatherlink.com 1.10,2013-02-04 03:30:00,
2013-02-03 20:45:00,58.9,37.0,30.02,NW,319,0.0,3.0,45,0.00,,,0.00,weatherlink.com 1.10,2013-02-04 03:45:00,
2013-02-03 21:00:00,58.5,38.0,30.02,WNW,295,0.0,1.0,47,0.00,,,0.00,weatherlink.com 1.10,2013-02-04 04:00:00,
2013-02-03 21:15:00,58.0,38.0,30.03,NW,321,2.0,3.0,47,0.00,,,0.00,weatherlink.com 1.10,2013-02-04 04:15:00,
2013-02-03 21:30:00,57.7,38.0,30.03,SSW,195,1.0,1.0,48,0.00,,,0.00,weatherlink.com 1.10,2013-02-04 04:30:00,
2013-02-03 21:45:00,57.4,38.0,30.03,SSW,195,0.0,0.0,48,0.00,,,0.00,weatherlink.com 1.10,2013-02-04 04:45:00,
2013-02-03 22:15:00,56.5,38.0,30.03,ESE,111,0.0,1.0,51,0.00,,,0.00,weatherlink.com 1.10,2013-02-04 05:15:00,
2013-02-03 22:30:00,55.5,38.0,30.02,ESE,111,0.0,1.0,52,0.00,,,0.00,weatherlink.com 1.10,2013-02-04 05:30:00,
2013-02-03 22:45:00,54.8,37.0,30.02,ESE,111,0.0,1.0,52,0.00,,,0.00,weatherlink.com 1.10,2013-02-04 05:45:00,
2013-02-03 23:00:00,54.9,37.0,30.02,SSE,159,0.0,1.0,52,0.00,,,0.00,weatherlink.com 1.10,2013-02-04 06:00:00,
2013-02-03 23:15:00,54.9,37.0,30.02,SSW,200,1.0,2.0,52,0.00,,,0.00,weatherlink.com 1.10,2013-02-04 06:15:00,
2013-02-03 23:30:00,54.5,38.0,30.02,SSW,198,0.0,4.0,54,0.00,,,0.00,weatherlink.com 1.10,2013-02-04 06:30:00,
2013-02-03 23:45:00,53.8,38.0,30.02,South,188,1.0,1.0,56,0.00,,,0.00,weatherlink.com 1.10,2013-02-04 06:45:00,